Location: Izdebno
(52.6670°N, 16.2170°E)
Time: 00:01:49
(UTC+02:00)

Vanguard 2 Rocket - Pass Details

Date: 25 February 2024
Orbit: 555 x 3307 km, 32.9° (Epoch: 21 April)

Event Time Altitude Azimuth Distance (km) Brightness Sun altitude
Rises 14:37:33 0° 222° (SW) 4,438 12.0 20.5°
Reaches altitude 10° 14:40:41 10° 210° (SSW) 3,821 12.1 20.2°
Maximum altitude 14:49:04 27° 157° (SSE) 3,501 10.4 19.3°
Drops below altitude 10° 15:01:14 10° 109° (ESE) 5,682 10.7 18.0°
Sets 15:07:17 0° 100° (E) 7,022 11.1 17.4°
